Regional Weather Roundup
Issued by NWS

Home | Current Version | Previous Version | Text Only | Print | Product List | Glossary On
Versions: 1 2 3 4 5 6 7 8 9 10 11 12 13 14 15 16 17 18 19 20 21 22 23 24 25 26 27 28 29 30 31 32 33 34 35 36 37 38 39 40 41 42 43 44 45 46 47 48 49 50
000
ASUS43 KLSX 251859
RWRMO

WEATHER SUMMARY FOR MISSOURI
NATIONAL WEATHER SERVICE SPRINGFIELD MO
200 PM CDT SAT APR 25 2015

NOTE: "FAIR" INDICATES FEW OR NO CLOUDS BELOW 12,000 FEET WITH NO
       SIGNIFICANT WEATHER AND/OR OBSTRUCTIONS TO VISIBILITY.
       CURRENT SKY AND/OR WEATHER CONDITIONS ARE NOT AVAILABLE FOR
       CHILLICOTHE AND FARMINGTON.

MOZ001>031-035>038-043-044-053-054-252000-
...NORTHERN AND WESTERN MISSOURI...

CITY           SKY/WX    TMP DP  RH WIND       PRES   REMARKS
KANSAS CTY INT CLOUDY    58  57  97 N13       29.54R
KANSAS C DTWN  CLOUDY    65  60  84 N15       29.52R
LEE`S SUMMIT   CLOUDY    62  60  93 VRB6      29.52R
ST JOSEPH      CLOUDY    54  51  90 N15       29.58R
CHILLICOTHE      N/A     55  53  93 N10       29.55R
KIRKSVILLE     LGT RAIN  54  53  97 NE14      29.54R FOG

$$
MOZ066>068-077>081-088>096-101>105-252000-
...SOUTHWEST MISSOURI...

CITY           SKY/WX    TMP DP  RH WIND       PRES   REMARKS
SPRINGFIELD    MOSUNNY   73  52  47 W17G26    29.53S
JOPLIN         MOSUNNY   75  53  46 W25G36    29.55F

$$
MOZ032>034-039>042-045>050-055>058-069>072-252000-
...CENTRAL MISSOURI...

CITY           SKY/WX    TMP DP  RH WIND       PRES   REMARKS
COLUMBIA       LGT RAIN  63  60  90 SW10      29.47R
JEFFERSON CITY CLOUDY    68  57  68 W16G25    29.46R
ROLLA          PTSUNNY   70  53  54 W17G30    29.46R
SEDALIA        PTSUNNY   68  56  65 SW15G22   29.50R
OSAGE BEACH    CLOUDY    72  52  49 W12G18    29.48S

$$
MOZ051-052-059>065-252000-
...EAST CENTRAL MISSOURI...

CITY           SKY/WX    TMP DP  RH WIND       PRES   REMARKS
ST LOUIS INTL  LGT RAIN  65  59  81 SW3       29.49R
SPIRIT OF STL  LGT RAIN  64  60  87 CALM      29.47S FOG
ST CHARLES     HVY RAIN  58  56  93 NE14      29.48R VSB 3/4

$$
MOZ072>076-082>087-097>100-106>115-252000-
...SOUTH CENTRAL AND SOUTHEAST MISSOURI...

CITY           SKY/WX    TMP DP  RH WIND       PRES   REMARKS
CAPE GIRARDEAU MOSUNNY   75  62  64 SW15      29.49S
FARMINGTON     MOSUNNY   73  61  64 SW9       29.49F
POPLAR BLUFF   SUNNY     76  62  62 SW15G25   29.48F
WEST PLAINS    MOSUNNY   78  49  35 W18G29    29.51S

$$



USA.gov is the U.S. government's official web portal to all federal, state and local government web resources and services.